Regional Weather Roundup
Issued by NWS

Home | Current Version | Previous Version | Text Only | Print | Product List | Glossary On
Versions: 1 2 3 4 5 6 7 8 9 10 11 12 13 14 15 16 17 18 19 20 21 22 23 24 25 26 27
000
ASUS46 KSEW 171210
RWRWA

WASHINGTON REGIONAL WEATHER ROUNDUP
NATIONAL WEATHER SERVICE SEATTLE WA
500 AM PDT THU AUG 17 2017

NOTE:"FAIR" INDICATES FEW OR NO CLOUDS BELOW 12,000 FEET WITH NO
SIGNIFICANT WEATHER AND/OR OBSTRUCTIONS TO VISIBILITY.

WAZ507-509-555>559-171300-
SEATTLE, TACOMA, EVERETT, AND VICINITY

CITY           SKY/WX    TMP DP  RH WIND       PRES   REMARKS
EVERETT        CLOUDY    57  53  86 VRB6      30.15S
6HR MIN TEMP:  57; 6HR MAX TEMP:  60;

BOEING FIELD   CLOUDY    63  58  83 E5        30.14R
6HR MIN TEMP:  63; 6HR MAX TEMP:  69;

RENTON         CLOUDY    64  57  78 S5        30.14R
6HR MIN TEMP:  64; 6HR MAX TEMP:  70;

SEATAC AIRPORT CLOUDY    60  56  86 S8        30.15R
6HR MIN TEMP:  60; 6HR MAX TEMP:  66;

JBLM-MCCHORD   CLOUDY    60  57  90 SW3       30.14S
6HR MIN TEMP:  60; 6HR MAX TEMP:  65;

PUYALLUP       CLOUDY    59  55  88 VRB5      30.15S
BREMERTON      CLOUDY    58  55  90 S3        30.15R
6HR MIN TEMP:  58; 6HR MAX TEMP:  62;

JBLM-FT LEWIS  CLOUDY    59  57  94 S3        30.14S
6HR MIN TEMP:  60; 6HR MAX TEMP:  65;

TACOMA NARROWS CLOUDY    59  55  87 W3        30.15R
6HR MIN TEMP:  59; 6HR MAX TEMP:  63;

$$

WAZ001-503-506-510-514-515-171300-
NORTH INTERIOR

CITY           SKY/WX    TMP DP  RH WIND       PRES   REMARKS
BELLINGHAM     MOCLDY    60  55  83 S6        30.11R
6HR MIN TEMP:  59; 6HR MAX TEMP:  64;

FRIDAY HARBOR  CLEAR     52  52 100 CALM      30.13R
6HR MIN TEMP:  51; 6HR MAX TEMP:  60;

EASTSOUND      CLOUDY    59  54  82 S6        30.11S
PORT ANGELES   CLEAR     53  52  96 W8        30.16R
6HR MIN TEMP:  53; 6HR MAX TEMP:  59;

EDIZ HOOK      FAIR      54  53  95 W14       30.15R
6HR MIN TEMP:  54; 6HR MAX TEMP:  58;

PORT TOWNSEND  CLOUDY    59  54  82 NW6       30.14R
NAS WHIDBEY    MOCLDY    57  51  80 SW13      30.17R
6HR MIN TEMP:  56; 6HR MAX TEMP:  59;

ARLINGTON      CLOUDY    58  52  80 NW6       30.15S
6HR MIN TEMP:  58; 6HR MAX TEMP:  60;

BURLINGTON     CLOUDY    57  54  88 S5        30.14R
$$

WAZ020-022-039-040-504-511-512-171300-
SOUTHWEST INTERIOR

CITY           SKY/WX    TMP DP  RH WIND       PRES   REMARKS
SHELTON        CLOUDY    58  57  97 S3        30.12S FOG
6HR MIN TEMP:  58; 6HR MAX TEMP:  62;

OLYMPIA        CLOUDY    60  55  83 SW5       30.14S
6HR MIN TEMP:  60; 6HR MAX TEMP:  63;

CHEHALIS       CLOUDY    61  55  82 SW5       30.15S
KELSO          CLOUDY    62  53  72 W5        30.16S
6HR MIN TEMP:  62; 6HR MAX TEMP:  66;

VANCOUVER      CLOUDY    63  56  78 NW6       30.14R
6HR MIN TEMP:  63; 6HR MAX TEMP:  67;

SCAPPOOSE, OR  PTCLDY    59  53  80 NW3       30.14R
6HR MIN TEMP:  59; 6HR MAX TEMP:  65;

PORTLAND, OR   MOCLDY    63  55  75 N7        30.14S
6HR MIN TEMP:  63; 6HR MAX TEMP:  67;

$$

WAZ021-516-517-171300-
WASHINGTON COAST

CITY           SKY/WX    TMP DP  RH WIND       PRES   REMARKS
FORKS          CLOUDY    57  55  93 N3        30.17R
6HR MIN TEMP:  57; 6HR MAX TEMP:  59;

HOQUIAM        CLOUDY    57  55  93 W7        30.16R
6HR MIN TEMP:  57; 6HR MAX TEMP:  59;

ASTORIA, OR    CLOUDY    60  55  83 CALM      30.16S
6HR MIN TEMP:  59; 6HR MAX TEMP:  61;

$$

WAZ019-023-024-040-567>569-171300-
CASCADE MOUNTAINS AND COLUMBIA GORGE

CITY           SKY/WX    TMP DP  RH WIND       PRES   REMARKS
STAMPEDE PASS  FOG       52  51  97 VRB5      30.17S VSB 1/4
6HR MIN TEMP:  52; 6HR MAX TEMP:  56;

TROUTDALE, OR  CLOUDY    64  54  69 VRB3      30.14R
6HR MIN TEMP:  64; 6HR MAX TEMP:  69;

HOOD RIVER, OR SUNNY     63  55  77 NW14G20   30.08R
THE DALLES, OR CLEAR     68  58  70 NW13G22   30.02R
6HR MIN TEMP:  68; 6HR MAX TEMP:  76;

$$

WAZ026-027-041>044-520-521-171300-
EAST SLOPES

CITY           SKY/WX    TMP DP  RH WIND       PRES   REMARKS
OMAK           CLEAR     63  37  38 NW10      29.99R
6HR MIN TEMP:  62; 6HR MAX TEMP:  75;

WENATCHEE      CLEAR     64  47  53 N6        30.01R
6HR MIN TEMP:  64; 6HR MAX TEMP:  72;

ELLENSBURG     CLEAR     64  51  62 NW18      30.03R
6HR MIN TEMP:  64; 6HR MAX TEMP:  69;

YAKIMA         CLEAR     62  50  64 CALM      30.02R
6HR MIN TEMP:  61; 6HR MAX TEMP:  74;

SUNNYSIDE ARPT   N/A     52  49  90 CALM      30.00R
6HR MIN TEMP:  51; 6HR MAX TEMP:  69;

YAKIMA TC      FAIR      63  48  58 N3        30.01S
6HR MIN TEMP:  61; 6HR MAX TEMP:  71;

$$

WAZ028-034-035-171300-
COLUMBIA BASIN

CITY           SKY/WX    TMP DP  RH WIND       PRES   REMARKS
EPHRATA        CLEAR     67  40  37 NW18G25   29.96R
6HR MIN TEMP:  67; 6HR MAX TEMP:  77;

MOSES LAKE     CLEAR     64  49  57 SW9       29.98R
6HR MIN TEMP:  59; 6HR MAX TEMP:  72;

PASCO          CLEAR     58  53  84 W3        29.99R
6HR MIN TEMP:  58; 6HR MAX TEMP:  77;

RICHLAND ARPT  SUNNY     61  53  74 CALM      29.99S
6HR MIN TEMP:  60; 6HR MAX TEMP:  78;

HERMISTON, OR  CLEAR     67  56  67 SW9       30.00R
6HR MIN TEMP:  67; 6HR MAX TEMP:  75;

$$

WAZ036>038-171300-
NORTHEAST WASHINGTON

CITY           SKY/WX    TMP DP  RH WIND       PRES   REMARKS
SPOKANE GEIGER PTCLDY    59  46  62 S8        30.00R
6HR MIN TEMP:  59; 6HR MAX TEMP:  73;

SPOKANE FELTS  CLEAR     64  46  52 SW6       30.00R
6HR MIN TEMP:  58; 6HR MAX TEMP:  69;

FAIRCHILD AFB  CLEAR     56  45  67 S10       30.00R
6HR MIN TEMP:  56; 6HR MAX TEMP:  66;

COEURDALENE,ID CLEAR     63  48  58 S10       30.01R
6HR MIN TEMP:  56; 6HR MAX TEMP:  68;

DEER PARK      CLEAR     55  42  61 S3        30.00R
6HR MIN TEMP:  50; 6HR MAX TEMP:  66;

$$

WAZ029>033-171300-
SOUTHEAST WASHINGTON

CITY           SKY/WX    TMP DP  RH WIND       PRES   REMARKS
PULLMAN        CLEAR     63  48  58 W13       30.06R
6HR MIN TEMP:  56; 6HR MAX TEMP:  64;

LEWISTON, ID   CLEAR     61  43  51 CALM      30.01R
6HR MIN TEMP:  61; 6HR MAX TEMP:  74;

WALLA WALLA    CLEAR     69  52  54 S12       30.02S
6HR MIN TEMP:  68; 6HR MAX TEMP:  75;

PENDLETON, OR  CLEAR     66  50  56 SW8       30.04R
6HR MIN TEMP:  65; 6HR MAX TEMP:  74;

$$




USA.gov is the U.S. government's official web portal to all federal, state and local government web resources and services.